Cleveland, OH

2:40 PM EST on January 17, 2017 (GMT -0500)
Burke Lakefront

Weather History for KBKL - October, 2012

Change the Weather History Date:

Friday, October 12, 2012

  Actual Average Record
Temperature  
Mean Temperature 48 °F -  
Max Temperature 53 °F 62 °F 78 °F (2016)
Min Temperature 41 °F 48 °F 36 °F (2006)
Degree Days  
Heating Degree Days 18    
Moisture  
Dew Point 36 °F    
Average Humidity 62    
Maximum Humidity 82    
Minimum Humidity 47    
Precipitation  
Precipitation 0.00 in - - ()
Sea Level Pressure  
Sea Level Pressure 30.30 in    
Wind  
Wind Speed 14 mph (North)    
Max Wind Speed 20 mph    
Max Gust Speed 31 mph    
Visibility 10 miles    
Events Rain    
Averages and records for this station are not official NWS values.
T = Trace of Precipitation, MM = Missing Value Source: NWS Daily Summary

Daily Weather History Graph

Daily Weather History Graph

Search for Another Location

Airport or City:

Trip Planner

Search our weather history database for the weather conditions in past years. The results will help you decide how hot, cold, wet, or windy it might be!

Date:

Astronomy

Oct. 12, 2012 Rise Set
Actual Time 7:35 AM EDT 6:49 PM EDT
Civil Twilight 7:08 AM EDT 7:17 PM EDT
Nautical Twilight 6:35 AM EDT 7:49 PM EDT
Astronomical Twilight 6:03 AM EDT 8:21 PM EDT
Moon 4:15 AM EDT (10/12) 5:00 PM EDT (10/12)
Length of Visible Light 12h 09m
Length of Day
11h 13m
Waning Crescent, 11% of the Moon is Illuminated
Oct 12
Waning Crescent
Oct 15
New
Oct 21
First Quarter
Oct 29
Full
Nov 6
Last Quarter

Hourly Weather History & Observations

Time (EDT) Temp. Windchill Dew Point Humidity Pressure Visibility Wind Dir Wind Speed Gust Speed Precip Events Conditions
12:53 AM 53.1 °F - 33.1 °F 47% 30.12 in 10.0 mi SW 15.0 mph 20.7 mph N/A   Mostly Cloudy
1:53 AM 52.0 °F - 37.0 °F 57% 30.15 in 10.0 mi West 10.4 mph - N/A   Scattered Clouds
2:18 AM 51.8 °F - 46.4 °F 82% 30.15 in 10.0 mi North 17.3 mph 23.0 mph N/A   Overcast
2:35 AM 51.8 °F - 44.6 °F 76% 30.16 in 10.0 mi North 17.3 mph 25.3 mph N/A   Overcast
2:53 AM 50.0 °F - 42.1 °F 74% 30.17 in 10.0 mi North 19.6 mph 31.1 mph N/A   Overcast
3:38 AM 48.2 °F - 37.4 °F 66% 30.19 in 10.0 mi North 19.6 mph 26.5 mph 0.00 in Rain Light Rain
3:53 AM 46.9 °F - 37.9 °F 71% 30.20 in 10.0 mi NNW 17.3 mph 26.5 mph 0.00 in Rain Light Rain
4:53 AM 46.9 °F - 35.1 °F 63% 30.22 in 10.0 mi North 15.0 mph - 0.00 in   Overcast
5:53 AM 46.9 °F - 35.1 °F 63% 30.23 in 10.0 mi NNW 17.3 mph 21.9 mph N/A   Overcast
6:53 AM 48.0 °F - 35.1 °F 61% 30.27 in 10.0 mi NNW 13.8 mph 24.2 mph N/A   Overcast
7:53 AM 48.0 °F - 34.0 °F 58% 30.29 in 10.0 mi NNW 17.3 mph 25.3 mph N/A   Overcast
8:53 AM 46.9 °F - 33.1 °F 59% 30.34 in 10.0 mi NNW 16.1 mph 23.0 mph N/A   Scattered Clouds
10:53 AM 46.9 °F - 35.1 °F 63% 30.39 in 10.0 mi North 13.8 mph - N/A   Scattered Clouds
1:53 PM 50.0 °F - 36.0 °F 59% 30.41 in 10.0 mi North 8.1 mph - N/A   Scattered Clouds
2:53 PM 52.0 °F - 35.1 °F 53% 30.41 in 10.0 mi NNE 10.4 mph - N/A   Mostly Cloudy
3:53 PM 51.1 °F - 35.1 °F 54% 30.40 in 10.0 mi NE 10.4 mph - N/A   Partly Cloudy
4:53 PM 50.0 °F - 33.1 °F 52% 30.40 in 10.0 mi NNE 9.2 mph - N/A   Clear
6:53 PM 46.0 °F 41.9 °F 33.1 °F 61% 30.42 in 10.0 mi NNE 8.1 mph - N/A   Clear
7:53 PM 46.0 °F 42.5 °F 30.9 °F 56% 30.42 in 10.0 mi East 6.9 mph - N/A   Clear
8:53 PM 44.1 °F 40.8 °F 32.0 °F 63% 30.41 in 10.0 mi East 5.8 mph - N/A   Clear
10:53 PM 42.1 °F 39.2 °F 30.9 °F 65% 30.44 in 10.0 mi SSE 4.6 mph - N/A   Clear
11:53 PM 41.0 °F 37.1 °F 30.0 °F 65% 30.43 in 10.0 mi SSE 5.8 mph - N/A   Clear